This is the latest recevied weather packets stored in our database for station/object K42C. If no packets are shown the sender has not sent any weather packets the latest 10 day(s).
| Time | Temp. | Humidity | Pressure | Rain* | Wind** | Luminosity | Snow |
|---|---|---|---|---|---|---|---|
| 1777837028 | 12.78° C | 69% | 971.4 hPa | 0 mm | 3.13 m/s, 193° | - | - |
| 1777836630 | 12.78° C | 68% | 971.3 hPa | 0 mm | 2.24 m/s, 226° | - | - |
| 1777836230 | 13.33° C | 66% | 971.3 hPa | 0 mm | 3.58 m/s, 214° | - | - |
| 1777835832 | 13.89° C | 65% | 971.3 hPa | 0 mm | 2.68 m/s, 184° | - | - |
| 1777835431 | 14.44° C | 63% | 971.1 hPa | 0 mm | 4.47 m/s, 188° | - | - |
| 1777835034 | 14.44° C | 62% | 971.3 hPa | 0 mm | 5.36 m/s, 239° | - | - |
| 1777834633 | 15° C | 60% | 971.2 hPa | 0 mm | 4.47 m/s, 204° | - | - |
| 1777834236 | 15° C | 60% | 971.2 hPa | 0 mm | 5.81 m/s, 221° | - | - |
| 1777833835 | 15° C | 60% | 971 hPa | 0 mm | 2.68 m/s, 219° | - | - |
| 1777833438 | 15° C | 60% | 971.1 hPa | 0 mm | 4.02 m/s, 207° | - | - |
| 1777832640 | 15° C | 59% | 971.2 hPa | 0 mm | 4.02 m/s, 193° | - | - |
| 1777832239 | 15.56° C | 59% | 971.4 hPa | 0 mm | 2.24 m/s, 212° | - | - |
| 1777831842 | 15° C | 59% | 971.4 hPa | 0 mm | 4.02 m/s, 224° | - | - |
| 1777831441 | 15° C | 58% | 971.6 hPa | 0 mm | 3.13 m/s, 249° | - | - |
| 1777831043 | 15° C | 61% | 971.6 hPa | 0 mm | 3.13 m/s, 232° | - | - |
| 1777830643 | 15° C | 61% | 971.8 hPa | 0 mm | 3.58 m/s, 149° | - | - |
| 1777829845 | 14.44° C | 61% | 971.8 hPa | 0 mm | 4.02 m/s, 253° | - | - |
| 1777829447 | 14.44° C | 61% | 971.9 hPa | 0 mm | 4.47 m/s, 172° | - | - |
| 1777829046 | 13.89° C | 63% | 972.1 hPa | 0 mm | 3.13 m/s, 239° | - | - |
| 1777828649 | 13.89° C | 61% | 972.2 hPa | 0 mm | 5.81 m/s, 221° | - | - |
| 1777828248 | 13.89° C | 63% | 972.4 hPa | 0 mm | 4.02 m/s, 285° | - | - |
| 1777827851 | 13.89° C | 63% | 972.2 hPa | 0 mm | 3.13 m/s, 269° | - | - |
| 1777827450 | 13.33° C | 62% | 972.4 hPa | 0 mm | 3.58 m/s, 222° | - | - |
| 1777827053 | 13.33° C | 64% | 972.4 hPa | 0 mm | 4.92 m/s, 195° | - | - |
| 1777826652 | 13.33° C | 63% | 972.6 hPa | 0 mm | 4.02 m/s, 190° | - | - |
* Rain latest hour (hover to see other rain measurements)
** Current wind speed in m/s (hover to see current wind gust speed)